| time (UTC) | temp F | wind direction | speed MPH | gust MPH | rain 1hr in | rain 24hr in | rain mn in | humidity % | barometer mb |
| 20260509044546 | 75 | 148 | 5.0 | 6.0 | 0.00 | 0.04 | 0.04 | 93 | 1011.8 |
| 20260509043046 | 75 | 111 | 4.0 | 8.0 | 0.00 | 0.04 | 0.04 | 92 | 1012.0 |
| 20260509041548 | 75 | 110 | 4.0 | 8.0 | 0.00 | 0.04 | 0.04 | 92 | 1012.1 |
| 20260509040054 | 75 | 106 | 5.0 | 7.0 | 0.00 | 0.04 | 0.04 | 92 | 1011.9 |
| 20260509034604 | 75 | 81 | 3.0 | 7.0 | 0.00 | 0.04 | 0.04 | 92 | 1011.9 |
| 20260509034501 | 75 | 79 | 4.0 | 7.0 | 0.00 | 0.04 | 0.04 | 92 | 1011.8 |
| 20260509033007 | 74 | 99 | 1.0 | 5.0 | 0.00 | 0.04 | 0.04 | 92 | 1011.8 |
| 20260509031511 | 74 | 89 | 4.0 | 7.0 | 0.00 | 0.04 | 0.04 | 92 | 1011.3 |
| 20260509030018 | 74 | 78 | 4.0 | 7.0 | 0.00 | 0.04 | 0.04 | 92 | 1011.3 |
| 20260509024523 | 74 | 92 | 3.0 | 6.0 | 0.00 | 0.04 | 0.04 | 92 | 1011.3 |
| 20260509023034 | 74 | 106 | 2.0 | 7.0 | 0.00 | 0.04 | 0.04 | 92 | 1011.0 |
| 20260509021535 | 74 | 98 | 3.0 | 8.0 | 0.00 | 0.04 | 0.04 | 92 | 1011.1 |
| 20260509020047 | 74 | 108 | 4.0 | 7.0 | 0.00 | 0.04 | 0.04 | 92 | 1010.8 |
| 20260509014552 | 74 | 82 | 3.0 | 7.0 | 0.00 | 0.04 | 0.04 | 92 | 1010.8 |
| 20260509013113 | 74 | 84 | 3.0 | 7.0 | 0.00 | 0.04 | 0.04 | 92 | 1010.6 |
| 20260509011559 | 74 | 105 | 4.0 | 7.0 | 0.00 | 0.04 | 0.04 | 92 | 1010.7 |
| 20260509011503 | 74 | 107 | 3.0 | 6.0 | 0.00 | 0.04 | 0.04 | 92 | 1010.7 |
| 20260509010007 | 74 | 95 | 4.0 | 7.0 | 0.00 | 0.04 | 0.04 | 92 | 1010.5 |
| 20260509004513 | 74 | 115 | 4.0 | 8.0 | 0.00 | 0.04 | 0.04 | 92 | 1010.8 |
| 20260509003018 | 74 | 99 | 5.0 | 9.0 | 0.00 | 0.04 | 0.04 | 92 | 1010.4 |
| 20260509001519 | 74 | 89 | 4.0 | 8.0 | 0.00 | 0.04 | 0.04 | 92 | 1010.6 |
| 20260509000020 | 74 | 116 | 5.0 | 8.0 | 0.00 | 0.04 | 0.04 | 92 | 1010.5 |
| 20260508234527 | 74 | 107 | 3.0 | 7.0 | 0.00 | 0.04 | 0.04 | 92 | 1010.7 |
| 20260508233030 | 74 | 103 | 6.0 | 8.0 | 0.00 | 0.04 | 0.04 | 92 | 1010.5 |
| 20260508231519 | 74 | 112 | 5.0 | 9.0 | 0.00 | 0.04 | 0.04 | 92 | 1011.0 |
| 20260508230044 | 74 | 90 | 5.0 | 8.0 | 0.00 | 0.04 | 0.04 | 92 | 1010.9 |
| 20260508224554 | 74 | 103 | 5.0 | 8.0 | 0.00 | 0.04 | 0.04 | 92 | 1010.8 |
| 20260508223046 | 74 | 105 | 6.0 | 9.0 | 0.00 | 0.04 | 0.04 | 92 | 1010.7 |
| 20260508221555 | 74 | 92 | 5.0 | 9.0 | 0.00 | 0.04 | 0.04 | 92 | 1010.9 |
| 20260508220046 | 74 | 115 | 5.0 | 8.0 | 0.00 | 0.04 | 0.04 | 91 | 1010.8 |
| 20260508214551 | 73 | 109 | 6.0 | 8.0 | 0.00 | 0.04 | 0.04 | 92 | 1010.9 |
| 20260508213113 | 73 | 85 | 3.0 | 5.0 | 0.00 | 0.04 | 0.04 | 91 | 1011.1 |
| 20260508211559 | 73 | 105 | 2.0 | 6.0 | 0.00 | 0.04 | 0.04 | 91 | 1011.3 |
| 20260508210007 | 72 | 80 | 5.0 | 7.0 | 0.00 | 0.04 | 0.04 | 91 | 1011.4 |
| 20260508204516 | 72 | 115 | 6.0 | 8.0 | 0.00 | 0.04 | 0.04 | 92 | 1011.4 |
| 20260508203008 | 71 | 113 | 4.0 | 8.0 | 0.00 | 0.04 | 0.04 | 91 | 1011.9 |
| 20260508201513 | 71 | 104 | 4.0 | 7.0 | 0.00 | 0.04 | 0.04 | 91 | 1011.8 |
| 20260508200022 | 71 | 89 | 5.0 | 8.0 | 0.00 | 0.04 | 0.04 | 91 | 1012.1 |
| 20260508194524 | 70 | 92 | 5.0 | 8.0 | 0.00 | 0.04 | 0.04 | 91 | 1012.4 |
| 20260508193054 | 70 | 88 | 4.0 | 8.0 | 0.00 | 0.04 | 0.04 | 91 | 1012.6 |
| 20260508191531 | 70 | 89 | 5.0 | 9.0 | 0.00 | 0.04 | 0.04 | 91 | 1012.5 |
| 20260508190039 | 69 | 92 | 3.0 | 7.0 | 0.00 | 0.04 | 0.04 | 91 | 1012.7 |
| 20260508184555 | 69 | 49 | 3.0 | 7.0 | 0.00 | 0.04 | 0.04 | 91 | 1012.6 |
| 20260508183044 | 69 | 86 | 3.0 | 7.0 | 0.00 | 0.04 | 0.04 | 91 | 1012.7 |
| 20260508181547 | 68 | 61 | 4.0 | 10.0 | 0.00 | 0.04 | 0.04 | 90 | 1013.1 |
| 20260508180056 | 68 | 65 | 5.0 | 9.0 | 0.00 | 0.04 | 0.04 | 91 | 1013.1 |
| 20260508174615 | 68 | 79 | 6.0 | 9.0 | 0.00 | 0.04 | 0.04 | 91 | 1013.5 |
| 20260508173116 | 68 | 53 | 5.0 | 8.0 | 0.00 | 0.04 | 0.04 | 90 | 1013.8 |
| 20260508171515 | 68 | 57 | 5.0 | 9.0 | 0.00 | 0.04 | 0.04 | 90 | 1013.7 |
| 20260508170017 | 68 | 63 | 5.0 | 9.0 | 0.00 | 0.04 | 0.04 | 90 | 1013.9 |
| 20260508164524 | 68 | 63 | 6.0 | 10.0 | 0.00 | 0.04 | 0.04 | 90 | 1014.0 |
| 20260508163018 | 68 | 80 | 5.0 | 9.0 | 0.00 | 0.04 | 0.04 | 90 | 1013.9 |
| 20260508161536 | 69 | 76 | 6.0 | 11.0 | 0.00 | 0.04 | 0.04 | 90 | 1014.1 |
| 20260508160028 | 69 | 76 | 6.0 | 9.0 | 0.00 | 0.04 | 0.04 | 90 | 1014.2 |
| 20260508154526 | 68 | 58 | 3.0 | 5.0 | 0.00 | 0.04 | 0.04 | 89 | 1015.0 |
| 20260508153035 | 68 | 99 | 2.0 | 7.0 | 0.00 | 0.04 | 0.04 | 89 | 1014.9 |
| 20260508151541 | 68 | 82 | 3.0 | 8.0 | 0.00 | 0.04 | 0.04 | 90 | 1014.7 |
| 20260508150042 | 68 | 69 | 5.0 | 10.0 | 0.00 | 0.04 | 0.04 | 90 | 1014.5 |
| 20260508144545 | 67 | 92 | 7.0 | 10.0 | 0.00 | 0.04 | 0.04 | 90 | 1013.9 |
| 20260508143050 | 67 | 29 | 4.0 | 7.0 | 0.00 | 0.04 | 0.04 | 89 | 1014.3 |
| 20260508141556 | 67 | 71 | 3.0 | 8.0 | 0.00 | 0.04 | 0.04 | 89 | 1014.5 |
| 20260508140114 | 68 | 101 | 4.0 | 7.0 | 0.00 | 0.04 | 0.04 | 89 | 1014.5 |
| 20260508140001 | 68 | 81 | 3.0 | 9.0 | 0.01 | 0.04 | 0.04 | 89 | 1014.6 |
| 20260508134506 | 67 | 70 | 0.0 | 5.0 | 0.04 | 0.04 | 0.04 | 89 | 1015.1 |
| 20260508133011 | 67 | 56 | 4.0 | 7.0 | 0.04 | 0.04 | 0.04 | 89 | 1014.9 |
| 20260508131510 | 67 | 61 | 3.0 | 6.0 | 0.04 | 0.04 | 0.04 | 89 | 1014.7 |
| 20260508130012 | 68 | 55 | 1.0 | 4.0 | 0.03 | 0.03 | 0.03 | 88 | 1014.9 |
| 20260508124523 | 68 | 52 | 1.0 | 4.0 | 0.00 | 0.00 | 0.00 | 88 | 1014.9 |
| 20260508123025 | 68 | 51 | 4.0 | 8.0 | 0.00 | 0.00 | 0.00 | 89 | 1014.9 |
| 20260508121534 | 68 | 19 | 3.0 | 7.0 | 0.00 | 0.00 | 0.00 | 89 | 1014.7 |
| 20260508120035 | 68 | 341 | 3.0 | 7.0 | 0.00 | 0.00 | 0.00 | 88 | 1014.8 |
| 20260508114539 | 68 | 40 | 2.0 | 6.0 | 0.00 | 0.00 | 0.00 | 88 | 1014.2 |
| 20260508113101 | 69 | 66 | 6.0 | 10.0 | 0.00 | 0.00 | 0.00 | 88 | 1013.4 |
| 20260508111601 | 69 | 24 | 4.0 | 10.0 | 0.00 | 0.00 | 0.00 | 88 | 1014.4 |
| 20260508110104 | 70 | 54 | 5.0 | 8.0 | 0.00 | 0.00 | 0.00 | 87 | 1014.2 |
| 20260508110001 | 70 | 65 | 5.0 | 8.0 | 0.00 | 0.00 | 0.00 | 87 | 1014.3 |
| 20260508104506 | 70 | 45 | 4.0 | 7.0 | 0.00 | 0.00 | 0.00 | 86 | 1014.5 |
| 20260508103013 | 71 | 51 | 6.0 | 10.0 | 0.00 | 0.00 | 0.00 | 86 | 1014.3 |
| 20260508101515 | 71 | 80 | 6.0 | 8.0 | 0.00 | 0.00 | 0.00 | 86 | 1013.5 |
| 20260508100014 | 71 | 47 | 3.0 | 6.0 | 0.00 | 0.00 | 0.00 | 86 | 1014.0 |
| 20260508094521 | 72 | 76 | 4.0 | 7.0 | 0.00 | 0.00 | 0.00 | 86 | 1014.0 |
| 20260508093003 | 73 | 115 | 4.0 | 8.0 | 0.00 | 0.00 | 0.00 | 86 | 1013.6 |
| 20260508091512 | 73 | 86 | 3.0 | 6.0 | 0.00 | 0.00 | 0.00 | 86 | 1014.2 |
| 20260508090015 | 73 | 108 | 2.0 | 5.0 | 0.00 | 0.00 | 0.00 | 85 | 1014.1 |
| 20260508084514 | 73 | 130 | 3.0 | 5.0 | 0.00 | 0.00 | 0.00 | 85 | 1014.2 |
| 20260508083024 | 73 | 132 | 1.0 | 4.0 | 0.00 | 0.00 | 0.00 | 85 | 1014.3 |
| 20260508081525 | 73 | 116 | 2.0 | 5.0 | 0.00 | 0.00 | 0.00 | 85 | 1014.3 |
| 20260508080028 | 73 | 109 | 6.0 | 8.0 | 0.00 | 0.00 | 0.00 | 85 | 1014.2 |
| 20260508074534 | 73 | 95 | 2.0 | 3.0 | 0.00 | 0.00 | 0.00 | 84 | 1014.5 |
| 20260508073037 | 73 | 95 | 1.0 | 2.0 | 0.00 | 0.00 | 0.00 | 84 | 1014.5 |
| 20260508071552 | 73 | 93 | 2.0 | 5.0 | 0.00 | 0.00 | 0.00 | 84 | 1014.7 |
| 20260508070058 | 73 | 87 | 0.0 | 2.0 | 0.00 | 0.00 | 0.00 | 84 | 1014.9 |
| 20260508064559 | 73 | 87 | 0.0 | 2.0 | 0.00 | 0.00 | 0.00 | 84 | 1014.8 |
| 20260508063006 | 73 | 87 | 2.0 | 4.0 | 0.00 | 0.00 | 0.00 | 84 | 1014.5 |
| 20260508061515 | 73 | 86 | 2.0 | 3.0 | 0.00 | 0.00 | 0.00 | 83 | 1014.5 |
| 20260508060028 | 73 | 87 | 1.0 | 4.0 | 0.00 | 0.00 | 0.00 | 83 | 1014.8 |
| 20260508054529 | 73 | 87 | 0.0 | 2.0 | 0.00 | 0.00 | 0.00 | 83 | 1014.9 |
| 20260508053043 | 73 | 87 | 0.0 | 4.0 | 0.00 | 0.00 | 0.00 | 83 | 1014.9 |
| 20260508051602 | 73 | 87 | 1.0 | 3.0 | 0.00 | 0.00 | 0.00 | 83 | 1014.7 |
| 20260508050040 | 73 | 101 | 4.0 | 5.0 | 0.00 | 0.00 | 0.00 | 83 | 1014.5 |